When you browse on this site, cookies collect data to enhance your experience and personalize the content and advertising you see.
Visit our Privacy Policy to learn more. By continuing to use the site, you agree to this use of cookies and data.
  • In Hungary
  • List of Countries
  • For 7 days
  • Water Temperature
  • Weather Map
  • News
  • Weather Widgets
  • user-avatar
    Login

    Hourly Weather Niedzica

    Today, 21 November, Thursday

    Time Temperature Precipitation Wind Pressure Humidity
    00:00 +6°C° 0.1 mm 2 mps 703 mmHg 89%
    01:00 +6°C° 0.1 mm 2 mps 703 mmHg 92%
    02:00 +6°C° 0.1 mm 2 mps 702 mmHg 93%
    03:00 +6°C° 0.1 mm 2 mps 702 mmHg 94%
    04:00 +6°C° 0.1 mm 2 mps 702 mmHg 95%
    05:00 +6°C° 0.2 mm 2 mps 702 mmHg 95%
    06:00 +6°C° 0.2 mm 2 mps 702 mmHg 96%
    07:00 +7°C° 0.2 mm 2 mps 702 mmHg 96%
    08:00 +7°C° 0.6 mm 3 mps 702 mmHg 94%
    09:00 +8°C° 0.6 mm 3 mps 702 mmHg 91%
    10:00 +7°C° 0.6 mm 4 mps 702 mmHg 89%
    11:00 +8°C° 0.5 mm 3 mps 702 mmHg 88%
    12:00 +8°C° 0.5 mm 3 mps 702 mmHg 88%
    13:00 +8°C° 0.5 mm 3 mps 702 mmHg 88%
    14:00 +8°C° 0.1 mm 3 mps 702 mmHg 89%
    15:00 +8°C° 0.1 mm 3 mps 702 mmHg 90%
    16:00 +7°C° 0.1 mm 3 mps 702 mmHg 91%
    17:00 +7°C° 0 mm 3 mps 702 mmHg 92%
    18:00 +7°C° 0 mm 3 mps 703 mmHg 93%
    19:00 +7°C° 0 mm 2 mps 703 mmHg 93%
    20:00 +7°C° 0 mm 2 mps 703 mmHg 94%
    21:00 +6°C° 0 mm 2 mps 703 mmHg 94%
    22:00 +6°C° 0 mm 2 mps 703 mmHg 95%
    23:00 +6°C° 0 mm 2 mps 703 mmHg 95%

    Tomorrow, 22 November, Friday

    Time Temperature Precipitation Wind Pressure Humidity
    00:00 +6°C° 0 mm 2 mps 703 mmHg 94%
    01:00 +6°C° 0 mm 2 mps 703 mmHg 94%
    02:00 +6°C° 0.1 mm 2 mps 703 mmHg 94%
    03:00 +6°C° 0.1 mm 2 mps 703 mmHg 94%
    04:00 +6°C° 0.1 mm 2 mps 703 mmHg 94%
    05:00 +6°C° 0.1 mm 2 mps 703 mmHg 94%
    06:00 +5°C° 0.1 mm 2 mps 703 mmHg 94%
    07:00 +5°C° 0.1 mm 2 mps 704 mmHg 94%
    08:00 +6°C° 0.2 mm 2 mps 704 mmHg 92%
    09:00 +6°C° 0.2 mm 2 mps 704 mmHg 89%
    10:00 +7°C° 0.2 mm 2 mps 704 mmHg 87%
    11:00 +7°C° 0.1 mm 2 mps 704 mmHg 86%
    12:00 +8°C° 0.1 mm 3 mps 704 mmHg 85%
    13:00 +8°C° 0.1 mm 3 mps 704 mmHg 84%
    14:00 +7°C° 0 mm 2 mps 704 mmHg 87%
    15:00 +7°C° 0 mm 2 mps 704 mmHg 89%
    16:00 +6°C° 0 mm 2 mps 703 mmHg 92%
    17:00 +6°C° 0 mm 2 mps 704 mmHg 93%
    18:00 +5°C° 0 mm 2 mps 704 mmHg 93%
    19:00 +5°C° 0 mm 2 mps 704 mmHg 94%
    20:00 +5°C° 0 mm 2 mps 704 mmHg 94%
    21:00 +5°C° 0 mm 2 mps 704 mmHg 94%
    22:00 +5°C° 0 mm 2 mps 704 mmHg 94%
    23:00 +5°C° 0 mm 2 mps 704 mmHg 93%

    Day after tomorrow, 23 November, Saturday

    Time Temperature Precipitation Wind Pressure Humidity
    00:00 +4°C° 0 mm 2 mps 704 mmHg 93%
    01:00 +4°C° 0 mm 2 mps 704 mmHg 92%
    02:00 +4°C° 0 mm 2 mps 704 mmHg 92%
    03:00 +4°C° 0 mm 2 mps 704 mmHg 93%
    04:00 +4°C° 0 mm 2 mps 703 mmHg 93%
    05:00 +4°C° 0 mm 2 mps 703 mmHg 93%
    06:00 +4°C° 0 mm 2 mps 703 mmHg 93%
    07:00 +4°C° 0 mm 2 mps 703 mmHg 93%
    08:00 +4°C° 0 mm 3 mps 703 mmHg 89%
    09:00 +5°C° 0 mm 3 mps 703 mmHg 85%
    10:00 +7°C° 0 mm 3 mps 704 mmHg 81%
    11:00 +7°C° 0 mm 3 mps 703 mmHg 78%
    12:00 +8°C° 0 mm 3 mps 703 mmHg 75%
    13:00 +7°C° 0 mm 4 mps 703 mmHg 73%
    14:00 +7°C° 0 mm 3 mps 703 mmHg 77%
    15:00 +5°C° 0 mm 3 mps 703 mmHg 82%
    16:00 +4°C° 0 mm 3 mps 702 mmHg 87%
    17:00 +4°C° 0 mm 3 mps 702 mmHg 88%
    18:00 +3°C° 0 mm 3 mps 702 mmHg 89%
    19:00 +3°C° 0 mm 3 mps 703 mmHg 90%
    20:00 +3°C° 0 mm 3 mps 703 mmHg 90%
    21:00 +3°C° 0 mm 3 mps 703 mmHg 90%
    22:00 +4°C° 0 mm 2 mps 703 mmHg 90%
    23:00 +4°C° 0 mm 2 mps 703 mmHg 90%

    24 November, Sunday

    Time Temperature Precipitation Wind Pressure Humidity
    00:00 +4°C° 0 mm 2 mps 703 mmHg 89%
    01:00 +4°C° 0 mm 2 mps 703 mmHg 88%
    02:00 +4°C° 0 mm 2 mps 703 mmHg 88%
    03:00 +4°C° 0 mm 2 mps 702 mmHg 88%
    04:00 +4°C° 0 mm 2 mps 702 mmHg 87%
    05:00 +4°C° 0 mm 2 mps 702 mmHg 87%
    06:00 +4°C° 0 mm 2 mps 702 mmHg 87%
    07:00 +4°C° 0 mm 2 mps 703 mmHg 87%
    08:00 +5°C° 0 mm 2 mps 703 mmHg 84%
    09:00 +5°C° 0 mm 3 mps 703 mmHg 80%
    10:00 +7°C° 0 mm 3 mps 704 mmHg 76%
    11:00 +8°C° 0 mm 3 mps 703 mmHg 75%
    12:00 +8°C° 0 mm 3 mps 703 mmHg 73%
    13:00 +9°C° 0 mm 3 mps 703 mmHg 72%
    14:00 +8°C° 0 mm 2 mps 703 mmHg 76%
    15:00 +7°C° 0 mm 2 mps 703 mmHg 80%
    16:00 +6°C° 0 mm 2 mps 703 mmHg 84%
    17:00 +7°C° 0 mm 1 mps 703 mmHg 85%
    18:00 +7°C° 0 mm 1 mps 703 mmHg 85%
    19:00 +6°C° 0 mm 1 mps 703 mmHg 85%
    20:00 +6°C° 0 mm 1 mps 703 mmHg 85%
    21:00 +6°C° 0 mm 1 mps 703 mmHg 85%
    22:00 +6°C° 0 mm 1 mps 703 mmHg 85%
    23:00 +6°C° 0 mm 1 mps 703 mmHg 86%

    25 November, Monday

    Time Temperature Precipitation Wind Pressure Humidity
    00:00 +6°C° 0 mm 1 mps 703 mmHg 86%
    01:00 +5°C° 0 mm 0 mps 703 mmHg 87%
    02:00 +5°C° 0 mm 0 mps 703 mmHg 87%
    03:00 +5°C° 0 mm 0 mps 703 mmHg 87%
    04:00 +5°C° 0 mm 0 mps 703 mmHg 87%
    05:00 +5°C° 0 mm 0 mps 703 mmHg 87%
    06:00 +5°C° 0 mm 0 mps 703 mmHg 87%
    07:00 +5°C° 0 mm 0 mps 703 mmHg 87%
    08:00 +6°C° 0 mm 0 mps 704 mmHg 86%
    09:00 +6°C° 0 mm 0 mps 704 mmHg 84%
    10:00 +7°C° 0 mm 0 mps 704 mmHg 82%
    11:00 +7°C° 0 mm 0 mps 704 mmHg 81%
    12:00 +7°C° 0 mm 0 mps 704 mmHg 80%
    13:00 +8°C° 0 mm 0 mps 704 mmHg 79%
    14:00 +7°C° 0 mm 0 mps 704 mmHg 83%
    15:00 +7°C° 0 mm 0 mps 704 mmHg 86%
    16:00 +6°C° 0 mm 0 mps 704 mmHg 89%
    17:00 +6°C° 0 mm 0 mps 703 mmHg 90%
    18:00 +5°C° 0 mm 0 mps 703 mmHg 91%
    19:00 +5°C° 0 mm 0 mps 703 mmHg 92%
    20:00 +5°C° 0 mm 0 mps 703 mmHg 92%
    21:00 +5°C° 0 mm 0 mps 703 mmHg 93%
    22:00 +5°C° 0 mm 0 mps 704 mmHg 93%
    23:00 +5°C° 0 mm 0 mps 703 mmHg 93%

    26 November, Tuesday

    Time Temperature Precipitation Wind Pressure Humidity
    00:00 +5°C° 0 mm 0 mps 703 mmHg 92%
    01:00 +5°C° 0 mm 0 mps 703 mmHg 92%
    02:00 +5°C° 0 mm 0 mps 703 mmHg 92%
    03:00 +5°C° 0 mm 0 mps 703 mmHg 93%
    04:00 +5°C° 0 mm 0 mps 703 mmHg 93%
    05:00 +5°C° 0 mm 0 mps 703 mmHg 93%
    06:00 +5°C° 0 mm 0 mps 703 mmHg 94%
    07:00 +4°C° 0 mm 0 mps 703 mmHg 94%
    08:00 +5°C° 0 mm 0 mps 703 mmHg 91%
    09:00 +6°C° 0 mm 0 mps 704 mmHg 89%
    10:00 +6°C° 0 mm 0 mps 704 mmHg 86%
    11:00 +6°C° 0 mm 0 mps 704 mmHg 84%
    12:00 +7°C° 0 mm 0 mps 703 mmHg 83%
    13:00 +7°C° 0 mm 0 mps 703 mmHg 81%
    14:00 +6°C° 0 mm 0 mps 703 mmHg 84%
    15:00 +6°C° 0 mm 0 mps 703 mmHg 87%
    16:00 +5°C° 0 mm 0 mps 703 mmHg 91%
    17:00 +5°C° 0 mm 0 mps 703 mmHg 91%
    18:00 +4°C° 0 mm 0 mps 703 mmHg 92%
    19:00 +4°C° 0 mm 0 mps 703 mmHg 93%
    20:00 +5°C° 0 mm 1 mps 703 mmHg 93%
    21:00 +4°C° 0 mm 1 mps 703 mmHg 93%
    22:00 +4°C° 0 mm 1 mps 703 mmHg 93%
    23:00 +4°C° 0 mm 1 mps 703 mmHg 93%
    Show more